Location: Tabor
(49.4170°N, 14.6670°E)
Time: 09:21:02
(UTC+02:00)

ISS - Pass Details

Date: 18 May 2021
Orbit: 417 x 422 km, 51.6° (Epoch: 13 June)

Event Time Altitude Azimuth Distance (km) Brightness Sun altitude
Rises 01:17:31 0° 286° (WNW) 2,370 0.2 -20.9°
Reaches altitude 10° 01:19:38 10° 288° (WNW) 1,505 -0.8 -20.9°
Enters shadow 01:22:48 73° 331° (NNW) 444 -3.6 -20.8°
